Regional Weather Roundup
Issued by NWS

Home | Current Version | Previous Version | Text Only | Print | Product List | Glossary On
Versions: 1 2 3 4 5 6 7 8 9 10 11 12 13 14 15 16 17 18 19 20 21 22 23 24 25 26 27 28 29 30 31 32 33 34 35 36 37 38 39 40 41 42 43 44 45 46 47 48 49 50
000
ASUS44 KFWD 300315
RWRTX
NORTH TEXAS HOURLY WEATHER ROUNDUP
NATIONAL WEATHER SERVICE FORT WORTH TX
1000 PM CDT SAT AUG 29 2015

NOTE: "FAIR" INDICATES FEW OR NO CLOUDS BELOW 12,000 FEET WITH NO
SIGNIFICANT WEATHER AND/OR OBSTRUCTIONS TO VISIBILITY.

TXZ118-119-300400-
DALLAS/FORT WORTH METROPLEX

CITY           SKY/WX    TMP DP  RH WIND       PRES   REMARKS
DFW AIRPORT    CLOUDY    83  64  52 S5        29.96R
DALLAS LOVE    CLOUDY    85  63  47 CALM      29.97R
FTW MEACHAM    CLOUDY    83  65  54 SW5       29.97R
DAL-EXECUTIVE  CLOUDY    82  63  52 W6        29.97R
FTW-ALLIANCE   CLOUDY    80  65  59 S3        29.96S
FTW-NAS-JRB    CLOUDY    82  64  54 SW5       29.98R
FTW-SPINKS     CLOUDY    75  71  87 SW5       29.99R
ARLINGTON      CLOUDY    83  61  47 W3        29.97R
GRAND PRAIRIE  CLOUDY    86  62  45 W5        29.98S
ADDISON        PTCLDY    86  61  42 W5        29.98R
MESQUITE       CLOUDY    84  65  53 SW6       29.98R
LANCASTER      CLOUDY    83  62  48 W3        29.98R
$$

TXZ091>094-102>105-117-120-121-131>134-300400-
NORTH CENTRAL TEXAS

CITY           SKY/WX    TMP DP  RH WIND       PRES   REMARKS
SHRMAN/DENISON MOCLDY    84  66  54 S10       29.97R
GAINESVILLE    MOCLDY    79  63  56 S7        29.97R
BOWIE          MOCLDY    82  51  33 W7        29.97R
BRIDGEPORT     MOCLDY    78  62  58 S6        29.98R
DECATUR        MOCLDY    75  63  65 S7        29.97S
DENTON         MOCLDY    81  61  50 S6        29.96R
MCKINNEY       CLOUDY    83  67  58 S5        29.97R
GREENVILLE     MOCLDY    81  68  65 SE7       29.97R
ROCKWALL       CLOUDY    83  68  59 SW7       29.97R
TERRELL        CLOUDY    83  68  60 SE6       29.97R
WAXAHACHIE     CLOUDY    81  65  57 W5        29.99S
CLEBURNE       LGT RAIN  81  72  74 CALM      30.01R
GRANBURY       CLOUDY    81  67  61 CALM      30.00R
$$

TXZ083>090-098>101-113>116-127>130-139>142-154-155-300400-
WESTERN NORTH TEXAS

CITY           SKY/WX    TMP DP  RH WIND       PRES   REMARKS
WICHITA FALLS  MOCLDY    84  51  31 W13       29.97R
WF-KICKAPOO    MOCLDY    87  50  27 W7        29.97R
VERNON         CLOUDY    82  46  27 SW6       29.99R
ABILENE        CLOUDY    72  65  78 SE9       30.04F
ABILENE-DYESS  CLOUDY    72  64  74 S8        30.02F
BRECKENRIDGE   CLOUDY    80  55  43 W3        30.00R
GRAHAM         MOCLDY    79  55  43 CALM      29.98R
MINERAL WELLS  MOCLDY    75  67  76 SE9       29.97R
STEPHENVILLE   CLOUDY    79  59  50 CALM      30.04S
COMANCHE       CLOUDY    74  66  75 S3        30.03S
BROWNWOOD      CLOUDY    75  63  64 CALM      30.05R
COLEMAN        CLOUDY    76  60  58 W5        30.06S
BRADY          PTCLDY    81  61  50 N6        30.05R
$$

TXZ143>147-156>162-174-175-300400-
CENTRAL TEXAS

CITY           SKY/WX    TMP DP  RH WIND       PRES   REMARKS
WACO           CLOUDY    88  62  41 CALM      29.99R
WACO-MCGREGOR  MOCLDY    86  64  47 S6        29.99R
HILLSBORO      CLOUDY    83  62  49 W5        29.99R
CORSICANA      CLOUDY    84  67  56 S6        29.98R
MEXIA          MOCLDY    82  65  57 SE14      29.97S
HEARNE         CLEAR     79  66  64 CALM      30.00R
CAMERON        CLEAR     82  65  54 S7        29.98R
TEMPLE         MOCLDY    82  63  51 S6        30.00R
KILLEEN        CLOUDY    83  62  50 VRB2      30.01R
KILLEEN-SKYLRK MOCLDY    82  63  51 N6        30.01R
FORT HOOD      MOCLDY    83  63  51 N6        30.00R
GATESVILLE     CLOUDY    82  63  51 CALM      30.03R
HAMILTON       DRIZZLE   78  64  61 MISG      30.04R
$$

TXZ095>097-106>112-122>126-135>138-148>153-164>167-300400-
EAST TEXAS

CITY           SKY/WX    TMP DP  RH WIND       PRES   REMARKS
PARIS          PTCLDY    79  64  61 SE7       29.98R
SULPHUR SPRNGS CLEAR     81  69  67 SE6       30.00R
MOUNT PLEASANT CLEAR     77  69  75 SE3       30.00R
GILMER         CLEAR     77  70  79 CALM      29.99R
MINEOLA        CLEAR     79  73  83 CALM      29.99R
TYLER          PTCLDY    80  69  69 SE7       29.99R
LONGVIEW       PTCLDY    78  71  79 CALM      29.99R
MARSHALL       PTCLDY    78  74  87 CALM      30.01R
ATHENS         MOCLDY    79  68  69 SE3       29.97R
JACKSONVILLE   PTCLDY    82  60  47 S5        30.03R
HENDERSON      PTCLDY    76  69  79 CALM      30.00R
CENTER         FAIR      76  69  79 CALM      29.99R
NACOGDOCHES    PTCLDY    75  64  69 SE3       30.00R
LUFKIN         PTCLDY    77  63  61 S3        30.00R
$$

SUPPLEMENTAL OBSERVATIONS (CENTRAL)

CITY           SKY/WX    TMP DP  RH WIND       PRES   REMARKS
LAKE TEXOMA      N/A     84  63  48 S8          N/A
CADDO GRASSLND   N/A     82  68  61 S5          N/A
PAT MAYSE LAKE   N/A     82  70  65 SE9         N/A
ATHENS           N/A     82  72  69 E6          N/A
MCGREGOR         N/A     84  59  42 CALM        N/A
$$

SUPPLEMENTAL OBSERVATIONS (WEST)

CITY           SKY/WX    TMP DP  RH WIND       PRES   REMARKS
MILLERS CREEK    N/A     77  48  36 SW5         N/A
LBJ GRASSLAND    N/A     73  66  78 SE5         N/A
HAMBY            N/A     72  64  78 E1          N/A
IVIE RESERVOIR   N/A     77  59  53 N8          N/A
COLORADO BEND    N/A     81  59  47 E2          N/A
$$

SUPPLEMENTAL OBSERVATIONS (EAST)

CITY           SKY/WX    TMP DP  RH WIND       PRES   REMARKS
CLARKSVILLE      N/A     79  66  65 SE3         N/A
TEXARKANA        N/A     75  73  94 CALM        N/A
LINDEN           N/A     75  68  78 CALM        N/A
CADDO LAKE       N/A     73  72  94 CALM        N/A
GILMER           N/A     75  70  83 CALM        N/A
HENDERSON        N/A     77  66  69 CALM        N/A
LUFKIN           N/A     77  66  69 MISG        N/A
N SABINE NF      N/A     79  64  61 MISG        N/A
S SABINE NF      N/A     73  64  73 S1          N/A
$$

SUPPLEMENTAL OBSERVATIONS ARE A COLLECTION OF AUTOMATED INSTRUMENTS
THAT ARE MAINTAINED BY A VARIETY OF FEDERAL AND STATE AGENCIES.
CERTAIN ELEMENTS...SUCH AS HUMIDITY VALUES AND SUSTAINED WIND
SPEEDS...MAY BE APPROXIMATED.



USA.gov is the U.S. government's official web portal to all federal, state and local government web resources and services.